Precipitable_Water
2.23 2.23 2.25 1.90 1.11 1.10 0.94 1.00 1.26 1.18 1.20 1.51 1.60 1.54 1.45 1.58 1.39 1.24 2.22 2.31 2.24 2.30 2.36 2.28 2.18 2.08 2.07 2.03 1.96 1.90 1.81 1.74 1.70 1.66 1.63 1.51 1.45 1.41 1.45 1.47 1.46 1.47 1.54 1.57 1.56 1.52 1.52 1.58 1.64
2.20 2.17 2.07 1.58 0.99 0.82 0.89 1.18 1.13 1.25 1.39 1.50 1.51 1.57 1.48 1.39 1.81 1.95 2.07 2.32 2.30 2.33 2.39 2.34 2.27 2.14 2.08 1.97 1.88 1.83 1.75 1.68 1.61 1.55 1.53 1.48 1.44 1.45 1.48 1.53 1.60 1.63 1.67 1.57 1.59 1.55 1.59 1.61 1.68
2.21 2.22 1.57 1.25 1.02 0.83 0.93 1.18 1.24 1.37 1.50 1.45 1.40 1.62 1.57 1.52 1.88 1.98 2.24 2.33 2.35 2.32 2.38 2.36 2.32 2.18 2.05 1.91 1.74 1.67 1.60 1.53 1.46 1.43 1.42 1.42 1.46 1.48 1.51 1.52 1.47 1.53 1.54 1.50 1.49 1.55 1.57 1.70 1.78
2.04 1.87 1.71 1.11 0.93 1.06 1.12 1.23 1.30 1.34 1.44 1.50 1.47 1.32 1.73 2.04 1.96 2.14 2.28 2.32 2.29 2.31 2.38 2.44 2.33 2.20 2.08 1.98 1.70 1.60 1.56 1.51 1.42 1.39 1.40 1.45 1.49 1.52 1.50 1.48 1.51 1.49 1.47 1.52 1.51 1.62 1.69 1.73 1.82
1.86 1.59 1.12 0.99 1.01 1.15 1.29 1.36 1.42 1.34 1.37 1.33 1.42 1.36 1.54 2.00 2.19 2.22 2.23 2.29 2.24 2.32 2.39 2.47 2.35 2.26 2.23 2.06 1.83 1.68 1.63 1.59 1.53 1.47 1.45 1.40 1.44 1.48 1.49 1.48 1.46 1.49 1.52 1.54 1.64 1.72 1.73 1.83 1.96
1.41 1.41 0.92 0.84 1.02 1.16 1.28 1.46 1.46 1.37 1.38 1.33 1.36 1.43 1.61 2.10 2.10 2.20 2.25 2.25 2.32 2.32 2.40 2.48 2.44 2.36 2.31 2.21 2.00 1.75 1.63 1.58 1.51 1.47 1.45 1.39 1.34 1.46 1.56 1.51 1.55 1.62 1.60 1.64 1.72 1.81 1.92 2.05 2.13
1.17 1.00 0.84 0.84 0.91 1.00 1.23 1.49 1.36 1.37 1.30 1.29 1.50 1.29 1.68 1.93 2.20 2.26 2.26 2.29 2.32 2.37 2.39 2.42 2.44 2.44 2.35 2.30 2.25 1.92 1.75 1.64 1.65 1.55 1.42 1.32 1.34 1.46 1.63 1.60 1.60 1.71 1.80 1.79 1.94 2.01 2.02 2.03 2.04
1.31 1.13 0.87 0.82 0.79 0.85 1.16 1.29 1.37 1.34 1.27 1.60 1.62 1.26 1.45 1.87 2.17 2.26 2.25 2.24 2.24 2.31 2.36 2.38 2.41 2.44 2.38 2.44 2.36 2.06 1.88 1.87 1.77 1.67 1.51 1.33 1.47 1.58 1.65 1.68 1.71 1.77 1.81 1.86 1.97 1.95 1.90 1.93 2.04
1.42 0.91 0.76 0.79 0.80 0.91 1.15 1.06 1.38 1.41 1.22 1.33 1.44 1.47 1.59 1.85 2.06 2.07 2.04 2.09 2.11 2.19 2.29 2.37 2.38 2.44 2.41 2.47 2.42 2.31 2.05 1.94 1.80 1.79 1.56 1.42 1.60 1.68 1.78 1.82 1.84 1.90 1.87 1.82 1.88 1.91 1.98 1.92 1.94
1.21 0.91 0.87 0.96 0.97 0.91 1.06 1.05 1.09 1.10 1.10 1.12 1.19 1.48 1.53 1.69 1.77 1.70 1.72 1.78 1.93 2.02 2.16 2.30 2.31 2.32 2.34 2.40 2.42 2.37 2.14 1.91 1.80 1.84 1.66 1.58 1.59 1.71 1.77 1.85 1.93 1.93 1.91 1.87 1.87 1.99 1.97 2.02 2.06
1.20 0.91 1.02 1.00 1.00 1.10 1.05 1.02 1.19 1.09 1.01 1.11 1.05 1.27 1.43 1.41 1.57 1.56 1.61 1.69 1.76 1.95 2.08 2.17 2.23 2.28 2.30 2.34 2.45 2.37 2.16 1.92 1.82 1.88 1.86 1.63 1.61 1.69 1.77 1.86 1.83 1.85 1.85 1.80 1.84 1.86 1.90 1.94 2.04
1.06 1.10 1.09 1.02 1.01 1.07 0.99 1.09 1.09 1.07 1.03 1.23 1.24 1.29 1.34 1.30 1.36 1.43 1.42 1.59 1.73 1.79 1.89 2.03 2.15 2.18 2.23 2.33 2.35 2.34 2.13 2.02 1.89 1.90 1.91 1.81 1.67 1.59 1.64 1.71 1.79 1.89 1.98 1.79 1.84 1.88 1.89 1.96 1.99
1.10 1.11 1.13 1.07 1.03 1.05 1.07 0.92 1.03 1.05 1.19 1.33 1.32 1.33 1.27 1.28 1.33 1.39 1.48 1.56 1.63 1.65 1.76 1.89 2.03 2.08 2.12 2.15 2.24 2.24 2.14 2.12 2.02 1.95 1.98 1.96 1.66 1.58 1.59 1.65 1.74 1.83 1.87 1.83 1.78 1.74 1.77 1.88 1.95
1.24 1.22 1.15 1.10 1.09 1.10 1.06 1.09 1.11 1.16 1.34 1.34 1.36 1.30 1.36 1.36 1.38 1.41 1.39 1.39 1.43 1.54 1.65 1.80 1.90 1.99 2.03 2.05 2.10 2.09 2.19 2.24 2.13 1.94 1.97 2.03 1.74 1.59 1.63 1.64 1.69 1.76 1.77 1.77 1.67 1.69 1.72 1.82 1.99
1.23 1.06 1.15 1.10 1.13 1.11 1.14 1.01 1.02 1.23 1.34 1.33 1.38 1.35 1.44 1.44 1.44 1.34 1.40 1.40 1.46 1.49 1.54 1.65 1.76 1.88 1.91 1.96 2.02 2.01 2.20 2.31 2.12 1.92 1.98 2.11 2.01 1.73 1.63 1.62 1.67 1.74 1.80 1.64 1.56 1.60 1.72 1.82 2.04
1.08 1.10 0.91 1.09 1.16 1.22 1.14 0.84 1.11 1.35 1.33 1.32 1.41 1.45 1.46 1.49 1.45 1.52 1.52 1.50 1.53 1.49 1.46 1.61 1.71 1.75 1.84 1.90 1.97 2.01 2.07 2.23 2.12 2.09 2.08 2.10 2.15 1.78 1.67 1.61 1.68 1.83 1.82 1.68 1.49 1.57 1.66 1.89 2.11
1.04 0.84 0.90 0.96 1.19 1.14 1.09 0.89 1.07 1.33 1.30 1.32 1.37 1.43 1.49 1.53 1.51 1.60 1.64 1.57 1.57 1.55 1.53 1.53 1.60 1.66 1.75 1.83 1.88 1.96 2.00 2.13 2.19 2.21 2.13 2.11 2.21 2.07 1.72 1.62 1.70 1.84 1.74 1.51 1.39 1.53 1.81 1.98 2.07
0.78 0.87 0.93 0.89 1.03 1.07 1.00 0.94 1.06 1.16 1.22 1.28 1.41 1.50 1.44 1.48 1.49 1.59 1.68 1.68 1.69 1.66 1.64 1.61 1.62 1.61 1.74 1.80 1.82 1.83 1.94 2.04 2.16 2.15 2.18 2.14 2.14 2.21 1.86 1.73 1.72 1.84 1.61 1.47 1.44 1.56 1.97 2.14 1.95
0.96 0.90 0.86 0.94 1.03 0.99 0.98 1.01 1.07 1.18 1.21 1.20 1.34 1.45 1.49 1.45 1.60 1.70 1.75 1.75 1.74 1.75 1.71 1.69 1.61 1.68 1.70 1.72 1.71 1.73 1.75 1.84 1.87 2.02 2.04 2.06 2.07 2.15 2.04 1.80 1.81 1.77 1.67 1.47 1.54 1.79 2.01 2.02 1.95
0.99 0.90 0.86 0.96 1.04 0.97 0.97 0.92 1.06 1.16 1.20 1.24 1.29 1.36 1.44 1.43 1.55 1.65 1.73 1.74 1.75 1.71 1.71 1.61 1.59 1.69 1.77 1.80 1.81 1.85 1.82 1.82 1.82 1.89 1.91 2.04 2.09 2.05 2.07 1.91 1.76 1.78 1.75 1.54 1.58 1.90 2.05 1.91 1.80
0.84 0.79 0.80 0.84 1.00 1.03 0.94 0.82 0.90 1.09 1.22 1.29 1.32 1.37 1.42 1.37 1.46 1.56 1.63 1.65 1.74 1.71 1.71 1.63 1.59 1.67 1.80 1.91 1.91 1.91 1.96 1.91 1.77 1.85 1.99 2.13 2.11 2.05 2.02 1.96 1.73 1.82 1.80 1.60 1.66 1.97 2.11 1.75 1.66
0.74 0.89 0.86 0.90 0.87 0.70 0.96 0.59 0.78 0.95 1.03 1.17 1.25 1.31 1.39 1.39 1.42 1.55 1.63 1.68 1.66 1.72 1.80 1.77 1.62 1.63 1.81 1.94 1.88 1.81 1.77 1.71 1.81 1.89 2.02 2.05 2.13 2.07 2.02 1.94 1.70 1.80 1.85 1.62 1.73 2.11 2.19 1.88 1.44
0.76 0.92 0.92 0.93 0.89 0.84 0.79 0.67 0.68 0.89 0.89 1.04 1.15 1.21 1.28 1.31 1.39 1.49 1.57 1.68 1.74 1.80 1.81 1.77 1.72 1.67 1.80 1.90 1.89 1.81 1.84 1.85 1.89 1.86 1.95 2.01 2.04 2.08 2.02 1.97 1.72 1.67 1.86 1.71 1.86 2.23 2.12 1.86 1.50
1.00 0.90 0.88 0.93 0.83 0.65 0.73 0.70 0.58 0.69 0.80 0.96 1.12 1.10 1.12 1.22 1.38 1.52 1.63 1.74 1.78 1.83 1.83 1.77 1.75 1.67 1.77 1.86 1.92 1.91 1.89 1.88 1.83 1.81 1.84 1.88 1.91 1.98 2.00 1.93 1.72 1.80 1.84 1.78 2.03 2.27 2.05 1.70 1.51
0.91 0.78 0.62 0.60 0.59 0.56 0.77 0.68 0.63 0.84 0.89 0.98 1.11 1.13 1.13 1.22 1.35 1.43 1.48 1.55 1.68 1.72 1.69 1.74 1.73 1.60 1.59 1.66 1.77 1.94 2.01 2.00 1.94 1.94 1.85 1.83 1.86 1.94 1.94 1.93 1.99 2.07 1.86 1.96 2.19 2.16 1.91 1.58 1.27
0.73 0.71 0.60 0.49 0.48 0.50 0.79 0.56 0.61 0.91 0.98 1.07 1.13 1.14 1.17 1.21 1.27 1.29 1.37 1.50 1.57 1.60 1.64 1.67 1.67 1.58 1.51 1.55 1.61 1.81 2.00 2.05 2.04 2.02 1.95 1.87 1.89 2.01 2.07 2.08 2.14 2.05 2.02 2.11 2.18 2.11 1.74 1.39 1.24
0.69 0.60 0.83 0.70 0.71 0.59 0.61 0.69 0.79 0.89 0.97 1.06 1.06 1.08 1.14 1.19 1.20 1.24 1.37 1.45 1.51 1.57 1.52 1.59 1.60 1.53 1.44 1.53 1.63 1.75 1.88 2.02 2.05 2.05 2.03 1.98 1.98 2.06 2.14 2.15 2.14 2.08 2.12 2.20 2.17 1.95 1.43 1.19 1.13
0.77 0.76 0.61 0.72 0.54 0.46 0.52 0.52 0.52 0.68 0.75 0.89 0.94 0.98 1.08 1.12 1.19 1.31 1.34 1.42 1.52 1.58 1.58 1.57 1.58 1.45 1.46 1.58 1.67 1.79 1.83 1.99 2.07 2.07 2.01 1.98 2.04 2.06 2.14 2.15 2.19 2.16 2.21 2.22 2.05 1.61 1.21 1.05 1.08
0.60 0.59 0.60 0.70 0.65 0.47 0.38 0.41 0.64 0.66 0.75 0.80 0.92 1.05 1.09 1.10 1.06 1.21 1.34 1.43 1.52 1.50 1.50 1.52 1.54 1.48 1.50 1.63 1.73 1.83 1.80 1.94 2.00 2.04 2.01 2.00 2.06 2.09 2.11 2.09 2.16 2.18 2.23 2.12 1.76 1.28 1.08 1.01 0.96
0.54 0.49 0.59 0.50 0.48 0.54 0.48 0.39 0.67 0.69 0.74 0.82 0.87 1.02 1.08 1.10 1.15 1.24 1.34 1.43 1.50 1.45 1.45 1.45 1.54 1.52 1.55 1.70 1.87 1.88 1.85 1.84 1.93 1.99 2.01 2.04 2.01 2.07 2.13 2.17 2.18 2.24 2.23 1.91 1.31 1.10 1.05 0.91 0.82
Wind_Speed
7 6 5 5 5 7 5 5 6 6 5 5 7 6 7 6 5 7 14 13 16 16 18 18 18 18 17 17 16 16 16 15 15 14 14 13 12 11 10 9 8 8 7 6 6 7 7 7 7
6 5 5 5 7 6 3 5 6 7 8 7 7 6 6 5 5 13 13 16 16 16 17 17 18 17 17 16 16 15 15 14 14 13 13 11 11 10 8 7 7 6 6 6 6 6 6 7 8
6 5 5 5 6 6 7 6 9 9 7 4 4 4 4 6 10 12 14 15 15 15 16 16 17 17 16 15 15 14 14 13 13 12 11 10 9 8 7 6 6 6 6 6 6 6 7 8 8
6 4 3 4 6 7 8 8 8 7 5 5 5 4 6 6 9 10 15 15 14 15 15 15 16 15 15 14 14 13 12 12 11 11 10 9 7 7 6 6 6 6 6 7 7 8 9 9 9
7 7 7 7 6 7 7 7 8 5 4 4 4 6 5 6 10 13 14 14 14 14 15 14 16 14 14 13 12 12 11 10 10 10 9 8 7 6 6 6 6 7 7 8 8 8 8 8 8
7 7 8 7 6 7 7 10 8 7 7 8 8 7 6 10 11 12 13 14 13 14 14 14 15 14 13 12 11 10 10 10 9 8 8 7 6 6 7 7 7 8 9 9 8 8 8 7 7
8 8 6 6 7 7 9 9 7 9 8 5 6 5 7 9 10 11 13 13 13 14 13 13 14 13 12 10 10 11 9 9 8 7 6 6 6 7 7 7 8 8 8 7 7 7 7 7 7
6 6 6 6 6 5 10 8 10 8 3 5 6 4 8 10 11 11 12 13 13 13 12 13 13 12 11 9 11 11 10 8 7 6 6 6 6 7 7 7 7 6 6 5 5 6 6 7 7
7 7 6 9 9 8 12 9 6 4 6 2 1 4 9 11 11 10 11 12 13 13 13 13 13 12 11 9 11 11 11 9 7 6 6 6 6 6 6 5 5 4 3 3 3 5 7 8 8
6 6 5 3 11 11 10 8 6 5 5 4 5 8 11 11 11 10 11 12 13 13 13 13 13 13 11 10 11 12 13 10 8 7 6 6 6 5 4 3 2 2 1 2 4 6 8 9 10
6 4 2 1 5 10 9 7 5 7 2 1 6 10 10 10 10 10 10 12 13 13 13 13 13 13 12 11 10 12 13 11 9 8 7 6 6 5 4 2 1 1 2 3 4 6 7 10 11
3 0 1 2 7 7 6 6 5 2 1 3 5 10 10 10 10 10 9 11 12 13 13 13 13 13 13 12 11 11 13 11 11 9 8 7 6 5 4 2 1 1 2 3 4 6 9 10 12
3 2 2 2 7 7 5 4 3 2 4 5 7 9 10 10 9 9 9 10 10 11 12 13 13 14 13 13 12 11 11 12 13 12 10 8 6 5 4 3 2 1 3 4 5 7 9 11 12
2 2 1 4 4 3 5 3 2 2 5 5 5 9 9 9 9 8 9 9 10 11 12 13 13 14 14 14 14 13 11 11 15 14 11 9 7 6 5 3 2 1 2 3 6 8 9 11 13
2 2 2 3 1 2 4 2 3 5 5 5 5 7 8 9 9 10 8 9 10 10 11 13 13 14 15 15 15 14 12 12 14 15 13 11 8 7 5 4 2 1 2 4 6 8 11 12 12
1 1 1 2 1 2 4 6 5 7 7 6 7 7 9 10 10 10 9 10 10 11 11 12 13 15 15 16 16 16 15 13 15 17 15 12 9 8 6 5 4 2 3 5 7 9 11 11 11
1 2 3 4 6 4 6 6 7 9 8 8 8 10 10 10 11 11 10 10 11 11 11 12 13 14 15 15 16 16 17 16 15 17 17 14 12 9 8 7 5 3 5 6 6 8 9 10 11
4 3 4 5 4 5 6 6 6 8 11 11 11 12 11 12 13 12 11 10 10 10 11 12 13 13 14 15 16 17 17 18 16 16 19 18 14 12 10 8 7 5 5 5 6 8 8 9 10
6 6 7 6 6 4 6 8 8 9 10 12 14 14 15 13 14 12 12 11 10 11 11 12 13 13 14 15 17 18 18 19 18 16 17 18 17 16 12 10 8 6 5 5 6 7 8 7 7
8 7 9 8 8 7 7 10 10 11 13 14 15 15 16 14 15 15 14 15 14 11 11 12 13 13 14 15 18 18 18 20 19 17 16 17 16 15 14 12 10 8 6 6 6 6 7 5 5
9 9 9 9 6 8 8 11 10 12 13 14 17 18 16 17 18 16 15 15 14 12 12 12 12 12 13 13 16 17 18 20 21 19 17 17 19 18 16 14 12 10 7 6 6 5 4 3 3
10 11 13 10 7 9 8 10 11 11 11 12 13 16 19 18 19 17 17 16 15 14 12 12 12 12 13 13 15 17 17 19 20 19 18 16 17 19 18 17 13 10 8 6 6 5 3 3 3
8 6 7 7 9 9 9 8 12 11 11 11 12 12 15 16 19 19 18 17 17 14 13 12 12 11 12 13 15 16 17 18 18 19 19 18 18 20 20 18 15 12 9 7 6 5 3 3 3
11 7 5 7 8 9 9 5 11 9 10 10 12 13 13 16 17 18 18 17 17 16 15 13 12 11 11 12 13 15 17 18 18 18 18 16 15 16 19 19 16 13 11 8 6 4 3 3 2
9 8 8 7 7 10 5 6 11 10 11 11 9 12 14 14 15 16 17 17 17 16 15 14 13 12 12 12 13 15 17 18 18 18 17 16 15 15 16 16 15 13 11 8 6 5 4 2 1
13 11 8 10 8 8 7 9 10 10 7 4 6 8 11 15 16 16 17 17 16 15 15 15 14 13 13 13 14 16 19 18 19 18 17 17 15 16 15 15 15 13 11 9 7 6 4 3 2
13 12 11 8 9 8 8 11 11 8 6 5 7 9 12 14 15 16 18 17 18 15 15 15 14 13 13 13 14 17 20 20 19 19 18 17 15 16 16 16 14 13 11 10 9 6 4 4 3
13 12 8 9 9 10 9 9 9 8 8 7 9 12 14 14 16 16 17 16 16 17 14 14 15 14 13 13 14 16 20 21 20 19 19 18 16 16 17 16 14 13 11 10 9 7 5 4 3
10 11 7 10 10 9 9 9 10 9 8 6 7 10 10 13 13 14 15 15 15 15 14 13 14 13 13 13 14 15 19 19 20 18 18 18 17 17 18 16 14 13 12 11 9 7 6 5 4
16 14 12 10 10 9 8 10 9 9 10 8 6 6 9 11 13 13 13 13 14 13 13 13 13 12 12 12 13 15 17 18 19 18 17 17 17 17 17 16 15 14 13 11 10 8 7 5 4
Wind_Direction
138 132 132 143 143 130 121 119 128 124 109 99 111 118 112 99 117 130 138 137 134 135 134 135 133 130 128 126 125 123 122 120 121 122 122 121 118 116 113 110 105 100 92 83 74 67 61 55 52
141 137 133 140 136 139 130 140 119 124 128 119 104 113 99 108 112 133 138 143 141 139 137 136 135 132 131 128 126 125 123 121 121 122 123 120 118 116 112 107 101 95 89 83 75 61 57 58 60
129 132 137 129 142 152 143 130 135 138 140 118 121 127 124 119 127 139 145 146 145 145 144 142 141 137 133 131 128 127 125 122 121 122 123 120 117 115 111 104 97 95 89 81 71 69 70 70 66
133 114 142 143 150 144 132 139 142 138 107 100 120 123 133 140 142 147 149 150 149 149 149 148 147 144 139 135 133 131 130 127 124 123 122 119 116 114 109 103 100 92 87 85 83 81 77 72 66
95 98 99 109 128 140 137 149 142 127 101 104 126 135 138 147 143 149 155 156 156 154 154 151 152 147 150 142 139 137 135 132 129 125 122 117 114 111 107 104 100 94 92 91 88 81 75 69 61
99 99 99 104 124 121 128 138 130 108 102 107 110 125 135 145 147 154 161 162 163 162 161 161 160 157 153 152 151 146 142 138 134 129 124 118 113 110 108 107 101 98 97 94 87 77 66 58 45
101 95 100 103 120 115 124 134 132 125 123 113 125 138 154 156 156 157 162 166 168 169 168 167 166 166 164 168 174 162 155 149 144 137 130 123 115 115 111 108 105 102 97 91 80 65 50 37 23
108 106 102 115 117 99 137 130 128 117 96 121 126 154 171 164 158 160 164 171 173 175 178 176 174 174 173 174 172 172 168 162 155 148 140 134 125 119 115 111 109 102 96 88 66 43 23 8 1
111 100 94 103 98 115 130 125 139 98 117 86 229 156 153 160 162 162 168 175 180 184 185 185 185 183 183 185 182 184 181 177 171 160 151 144 138 131 121 115 109 98 87 68 25 10 3 357 351
109 107 122 74 112 117 130 117 122 117 96 64 104 137 151 158 167 169 175 181 186 190 191 192 194 193 195 196 200 194 188 185 182 174 166 161 155 149 140 126 108 75 37 -0 349 347 351 353 349
108 117 67 54 137 130 125 108 115 120 65 153 143 158 163 164 173 177 180 186 188 190 192 194 196 197 199 199 195 194 189 192 192 187 184 178 174 170 174 163 119 13 349 348 348 351 353 353 353
82 108 11 191 157 155 145 119 129 90 75 114 144 158 166 170 175 181 185 186 189 193 197 199 200 201 202 200 196 186 195 201 201 198 193 190 191 190 191 198 224 351 354 356 355 357 357 359 353
107 41 19 60 155 161 142 144 137 125 111 110 133 156 170 178 180 182 183 185 189 195 200 204 205 206 206 204 202 205 207 217 210 202 199 200 202 203 207 207 218 307 8 359 1 356 354 352 350
70 358 344 103 113 146 154 166 137 141 140 140 147 173 178 180 184 183 191 193 196 201 205 208 209 210 210 208 209 212 219 218 206 204 204 202 203 204 204 210 229 260 343 357 353 350 347 348 350
259 334 43 131 336 159 123 206 251 180 172 179 184 184 190 198 199 202 203 205 204 208 211 214 214 214 215 214 213 217 218 212 205 207 207 205 205 209 211 210 217 276 333 342 341 347 346 345 350
303 237 232 222 249 284 274 265 256 201 197 212 208 203 207 213 213 217 219 219 218 219 219 219 220 218 218 218 221 223 221 218 216 212 208 209 208 211 214 216 230 260 318 333 334 341 345 351 357
293 279 264 282 268 282 264 270 253 218 221 224 216 223 222 228 224 221 222 223 223 223 220 220 221 219 221 223 223 224 221 220 219 216 212 211 213 220 221 226 234 267 307 323 334 342 350 355 1
229 263 272 269 281 281 290 277 245 234 227 236 237 236 232 234 226 219 219 221 223 223 221 222 223 224 224 226 225 226 225 221 218 219 217 217 222 223 225 230 234 256 300 324 336 341 349 356 8
248 251 256 271 265 291 279 269 257 260 252 245 240 242 238 237 227 223 220 218 220 224 225 225 223 226 229 230 227 226 225 220 218 218 218 222 225 224 227 228 234 254 289 314 331 339 349 359 19
255 245 261 269 265 262 279 281 267 265 265 251 243 246 240 234 224 228 227 221 223 224 228 226 227 231 236 235 228 225 223 221 219 220 225 219 217 219 224 229 234 251 275 299 319 335 346 356 22
235 238 259 251 268 279 289 294 278 279 267 267 255 242 238 231 230 228 220 221 220 224 228 228 231 235 238 231 222 222 223 221 221 224 225 221 224 226 229 230 234 244 263 282 302 320 341 358 7
249 252 257 253 268 276 299 286 293 288 277 264 264 243 235 233 227 227 219 221 217 226 231 233 234 239 237 229 222 221 221 220 219 221 219 224 229 227 229 228 229 235 252 269 285 298 283 332 345
256 262 248 257 264 287 284 297 288 294 285 268 265 247 229 227 226 222 220 222 223 225 229 232 236 238 232 227 224 222 220 219 218 220 224 231 235 233 226 223 223 233 244 258 269 281 254 294 318
235 255 271 263 265 277 276 270 298 283 276 288 257 233 226 223 223 222 224 223 228 229 231 229 229 230 230 226 223 221 218 217 218 221 223 230 231 221 217 217 224 231 237 243 248 250 250 271 302
242 250 271 266 282 250 272 277 289 305 288 298 242 219 223 222 221 220 219 220 222 227 222 223 225 229 226 226 227 223 219 219 218 218 221 222 221 216 213 215 218 223 222 229 232 228 242 249 270
245 234 222 237 259 272 268 267 288 309 302 269 216 234 226 222 225 222 217 212 213 217 221 222 225 229 230 235 237 231 223 220 218 217 218 217 218 215 212 213 213 213 217 221 218 220 229 239 218
240 238 232 243 272 275 270 287 301 293 298 266 252 251 241 233 223 221 217 218 217 218 221 221 223 230 234 242 244 234 224 219 217 215 215 216 216 211 213 209 209 209 215 212 208 213 220 212 207
227 209 237 245 250 265 274 284 279 276 272 274 273 262 252 232 222 222 216 216 215 218 223 222 225 232 238 247 247 234 220 216 215 214 215 213 214 211 206 204 206 207 209 204 201 206 207 197 200
228 240 259 230 245 252 271 276 269 264 263 268 276 266 239 211 204 207 211 212 211 214 220 222 225 233 244 248 242 227 212 209 208 209 209 211 213 211 205 207 206 207 205 199 200 202 197 195 197
233 239 231 232 248 253 265 278 296 274 265 256 281 262 218 209 202 205 203 202 208 212 216 220 226 235 247 246 234 213 205 204 205 205 205 207 209 209 209 205 201 198 197 199 200 192 190 185 179